Wind_Speed
109 109 110 110 114 119 123 130 137 134 128 123 134 142 144 142 142 137 131 129 132 129 127 126 123 119 119 118 116 116 113 120 117 116 107 112 115 113
107 109 112 115 120 124 131 136 141 148 146 137 138 135 127 123 118 114 109 109 108 109 110 108 107 106 104 102 101 98 96 100 104 109 108 107 111 116
110 116 118 122 127 133 139 143 146 150 154 138 122 113 106 105 102 102 101 100 99 99 99 97 94 95 95 95 95 91 87 86 90 98 96 96 109 109
116 119 124 130 135 139 144 146 148 150 137 120 105 103 103 101 92 89 88 87 87 88 87 86 84 83 83 84 84 85 83 81 82 86 92 88 102 88
120 125 131 137 141 146 147 148 144 126 118 109 99 96 91 93 86 84 84 84 82 82 81 81 78 76 76 75 75 76 78 78 77 79 83 84 89 92
127 133 139 144 146 146 145 136 122 114 110 100 94 89 90 89 84 79 77 79 77 77 76 73 71 70 69 68 67 68 70 72 72 73 76 77 83 82
133 140 145 147 144 137 123 116 113 109 101 95 92 87 86 86 83 78 72 72 74 76 71 68 67 65 63 60 60 61 62 62 64 65 67 68 72 75
140 144 147 142 130 120 115 111 107 101 96 92 87 81 79 79 75 71 67 64 67 72 60 64 59 58 56 54 53 54 52 54 54 57 61 64 68 69
146 146 139 127 117 111 108 103 101 98 91 83 74 71 70 70 66 64 58 57 58 58 50 59 51 51 50 47 47 46 44 45 48 52 54 58 64 69
144 136 124 115 108 103 96 94 94 91 82 75 69 64 61 58 56 56 52 50 48 46 47 50 43 45 41 42 42 40 38 42 45 48 51 56 61 65
135 125 114 106 101 93 88 86 85 81 76 68 60 58 55 49 47 46 45 43 38 38 38 38 36 38 39 39 36 34 36 41 44 47 48 50 54 58
121 112 105 100 94 89 84 79 74 71 67 64 56 50 48 44 41 39 38 35 29 28 31 34 34 35 36 36 34 34 35 38 40 45 47 48 49 53
109 104 97 92 87 83 77 70 64 62 60 54 51 47 42 38 33 31 30 26 26 27 31 32 33 33 33 35 32 32 34 36 40 43 43 43 47 49
101 95 89 84 81 76 69 63 59 55 51 47 43 39 34 30 26 25 24 23 23 25 27 26 28 30 28 28 27 29 32 35 38 40 42 43 46 49
94 89 84 80 74 68 61 57 52 49 43 39 36 32 27 24 23 22 21 20 20 21 23 24 25 23 20 22 24 27 28 30 33 36 38 41 43 44
86 84 79 73 66 61 57 51 47 43 39 34 30 26 23 21 20 19 18 18 18 18 18 17 17 18 18 20 23 24 24 28 32 33 36 38 40 43
78 74 70 64 58 54 49 43 40 36 33 28 24 22 19 18 17 16 15 14 14 14 15 14 14 15 16 18 19 19 21 25 27 28 30 33 36 37
72 67 61 55 50 45 41 38 33 31 27 24 21 19 17 16 15 15 14 13 13 13 14 13 12 13 15 16 16 18 22 24 25 26 29 31 33 36
64 59 52 46 43 38 35 31 28 25 22 20 18 17 16 15 15 14 14 13 12 11 11 10 11 12 14 16 18 20 22 24 24 27 30 31 33 38
56 50 44 40 35 32 27 25 22 21 19 17 16 16 15 14 14 13 10 8 6 5 6 7 8 10 14 17 20 21 22 23 25 27 29 33 36 38
47 41 37 33 29 23 21 20 20 18 16 16 15 14 13 13 12 11 10 7 6 6 6 8 8 10 12 16 19 22 23 24 26 28 29 30 33 37
38 34 31 26 21 18 18 18 16 15 14 14 13 14 13 13 12 11 11 11 12 12 12 11 12 12 13 14 16 19 22 24 26 27 29 30 35 37
30 27 24 19 16 15 15 14 14 13 14 14 13 13 12 13 13 14 14 14 14 13 14 15 17 18 18 20 21 23 23 24 27 29 31 33 36 38
Wind_Direction
296 296 295 295 295 294 292 291 291 292 289 284 285 286 288 286 284 283 282 280 278 277 276 274 274 274 272 270 267 266 264 265 266 266 264 264 265 262
296 296 296 294 293 293 294 295 295 296 299 296 296 293 289 287 286 285 284 282 279 277 275 274 272 270 269 268 266 263 261 260 259 261 258 258 259 255
297 296 294 295 294 294 295 296 296 298 301 300 297 294 290 287 286 285 282 280 278 276 275 272 270 268 266 264 263 262 259 255 253 254 253 251 253 256
296 296 295 295 295 295 295 297 301 301 300 300 298 296 294 291 288 284 281 279 277 275 274 273 271 269 267 264 261 259 256 253 251 248 251 248 247 249
299 298 297 296 296 296 299 302 303 302 301 300 299 296 293 291 288 285 282 280 277 275 274 272 271 270 268 265 262 258 254 249 247 245 245 245 245 246
300 300 298 297 299 302 303 304 304 303 301 300 300 298 296 292 288 284 282 278 275 272 270 270 269 267 266 265 261 257 254 249 246 245 242 241 241 241
301 301 301 302 305 306 307 307 305 303 302 303 302 300 296 291 289 286 280 277 275 271 270 270 268 266 264 264 261 257 253 250 247 245 244 241 240 239
304 304 304 307 309 308 308 308 305 303 304 302 303 299 296 291 290 286 283 279 273 271 273 269 266 265 262 260 257 256 252 248 245 242 239 238 237 237
306 308 309 310 310 310 309 307 304 304 304 304 303 301 296 295 292 289 285 280 276 276 270 265 265 263 258 258 256 253 250 245 241 238 236 235 234 231
309 310 310 310 311 309 309 307 306 305 307 307 306 302 297 294 290 288 285 280 277 273 265 262 265 262 260 256 252 251 251 247 241 236 237 234 231 229
310 310 310 312 311 311 310 309 308 309 308 308 306 300 298 296 293 288 284 282 277 271 267 266 262 258 256 254 253 252 248 243 236 231 232 230 226 224
310 310 312 312 313 313 311 311 310 307 308 307 305 302 301 300 295 289 284 282 274 267 261 256 254 253 251 251 250 245 240 235 228 226 224 224 223 221
311 311 312 313 312 312 312 312 309 308 307 307 306 307 306 301 296 290 283 277 268 258 254 252 251 248 246 248 245 237 234 229 223 220 222 222 222 222
313 313 313 313 313 313 313 311 310 308 308 308 309 308 305 300 294 286 280 273 264 258 257 255 251 251 249 247 240 236 232 228 223 218 219 220 221 220
315 314 314 313 314 314 313 311 310 310 310 310 311 310 306 301 293 286 280 272 265 258 254 253 252 249 242 236 233 229 223 217 216 216 218 220 220 220
313 312 313 314 316 314 313 312 311 311 312 315 314 311 307 300 294 287 281 276 271 266 261 256 251 247 235 225 220 218 214 216 217 216 217 219 220 218
311 312 313 314 314 312 310 310 310 311 315 316 313 310 305 302 298 295 290 282 271 266 264 259 247 238 225 217 212 209 209 209 211 212 212 214 217 215
313 313 313 314 312 310 309 311 311 314 318 317 314 312 310 307 302 299 295 291 285 276 270 262 244 234 223 217 212 207 204 203 204 205 208 208 210 212
313 313 315 313 310 311 313 311 316 322 324 322 323 321 316 311 310 306 303 298 293 282 272 255 239 225 218 213 210 211 208 206 207 206 205 206 206 208
312 315 314 310 313 315 313 318 326 331 331 332 330 324 321 312 309 311 307 301 293 286 273 239 223 219 215 214 215 215 211 212 213 212 211 210 210 210
316 314 311 313 317 319 322 331 336 340 339 335 330 324 321 321 324 326 328 309 293 273 257 228 228 226 218 216 215 210 207 207 206 206 208 211 212 211
314 312 314 317 321 331 337 341 349 350 343 336 330 327 323 318 312 310 306 302 295 285 275 259 250 243 243 244 239 233 222 218 216 216 216 216 211 211
312 314 316 322 334 345 346 347 350 343 333 322 316 314 307 298 289 281 275 270 265 262 262 260 257 252 245 239 238 235 233 234 231 229 227 223 219 218
Height
10507 10494 10480 10466 10451 10436 10421 10402 10382 10390 10408 10415 10381 10354 10328 10314 10299 10286 10280 10277 10269 10260 10256 10256 10258 10260 10261 10266 10276 10284 10296 10296 10304 10315 10335 10335 10331 10334
10479 10465 10450 10436 10422 10403 10385 10368 10346 10318 10317 10347 10330 10305 10282 10258 10248 10240 10236 10230 10223 10217 10214 10216 10218 10220 10223 10226 10233 10244 10255 10263 10269 10276 10291 10301 10301 10309
10451 10437 10421 10405 10388 10369 10351 10331 10312 10287 10262 10281 10266 10255 10235 10218 10215 10202 10196 10190 10185 10177 10173 10177 10181 10183 10185 10192 10197 10207 10219 10229 10236 10240 10254 10267 10270 10280
10424 10407 10389 10371 10353 10332 10312 10293 10273 10254 10227 10217 10223 10205 10193 10178 10176 10169 10161 10155 10151 10147 10145 10144 10147 10149 10155 10159 10165 10172 10183 10193 10205 10212 10215 10235 10242 10255
10393 10375 10355 10334 10315 10294 10274 10256 10237 10214 10192 10179 10183 10167 10159 10141 10141 10133 10127 10122 10120 10118 10116 10116 10119 10122 10124 10128 10136 10143 10150 10160 10172 10182 10191 10201 10213 10223
10359 10338 10316 10293 10273 10255 10239 10215 10195 10177 10159 10151 10145 10137 10120 10109 10103 10100 10099 10088 10088 10085 10087 10090 10093 10095 10097 10101 10109 10116 10123 10132 10142 10155 10167 10177 10186 10199
10327 10302 10275 10253 10235 10215 10195 10179 10158 10141 10128 10123 10114 10105 10091 10078 10070 10067 10069 10061 10057 10055 10061 10066 10068 10072 10076 10080 10084 10092 10099 10108 10117 10126 10137 10148 10159 10171
10291 10264 10234 10217 10199 10181 10162 10142 10123 10109 10104 10094 10087 10076 10061 10046 10043 10038 10038 10036 10030 10025 10044 10039 10046 10050 10054 10059 10064 10070 10079 10086 10094 10103 10114 10125 10137 10147
10248 10226 10203 10181 10168 10153 10136 10115 10095 10081 10074 10070 10062 10046 10033 10022 10018 10011 10013 10011 10007 10009 10024 10014 10026 10031 10034 10042 10046 10053 10060 10067 10075 10082 10092 10103 10112 10121
10212 10188 10170 10155 10141 10129 10114 10093 10072 10057 10050 10041 10031 10022 10013 10006 9998 9992 9992 9991 9993 9994 9996 9996 10009 10011 10019 10022 10028 10035 10042 10048 10055 10064 10072 10080 10089 10101
10177 10156 10140 10128 10114 10101 10089 10072 10052 10035 10024 10018 10013 10000 9992 9988 9982 9977 9975 9975 9978 9979 9982 9986 9992 9994 9998 10004 10012 10020 10027 10031 10037 10044 10053 10062 10071 10081
10152 10130 10117 10101 10087 10074 10062 10050 10035 10019 10009 9997 9993 9987 9978 9974 9969 9964 9961 9962 9964 9967 9968 9970 9975 9979 9985 9989 9998 10005 10010 10014 10020 10027 10034 10042 10053 10063
10126 10109 10095 10080 10066 10054 10041 10030 10019 10006 9994 9987 9978 9973 9967 9961 9957 9952 9950 9950 9951 9954 9954 9959 9962 9966 9973 9978 9986 9991 9996 10000 10005 10012 10021 10029 10038 10048
10102 10084 10074 10061 10048 10035 10023 10012 10003 9993 9984 9976 9969 9962 9957 9952 9947 9944 9942 9943 9945 9946 9948 9952 9955 9959 9966 9970 9975 9978 9982 9987 9994 10000 10007 10015 10024 10035
10078 10061 10050 10040 10030 10018 10009 10000 9990 9981 9973 9966 9959 9953 9948 9944 9941 9938 9938 9938 9939 9940 9942 9944 9947 9951 9957 9960 9963 9967 9973 9978 9982 9990 9997 10005 10015 10026
10058 10043 10033 10023 10013 10002 9994 9986 9977 9970 9963 9957 9951 9946 9942 9939 9937 9935 9934 9934 9935 9936 9937 9939 9942 9945 9949 9952 9955 9960 9966 9969 9974 9982 9990 9998 10007 10017
10044 10031 10020 10009 10001 9993 9984 9976 9968 9962 9956 9951 9946 9943 9939 9937 9935 9933 9932 9933 9933 9933 9934 9936 9938 9940 9944 9947 9950 9956 9960 9965 9970 9977 9985 9991 9998 10008
10026 10017 10007 9998 9990 9982 9974 9966 9961 9955 9951 9946 9943 9940 9937 9935 9933 9932 9931 9930 9930 9930 9930 9932 9934 9936 9939 9943 9948 9952 9956 9960 9966 9973 9980 9987 9994 10002
10012 10002 9995 9987 9979 9972 9965 9960 9955 9951 9947 9944 9941 9938 9935 9933 9931 9929 9928 9928 9927 9928 9928 9929 9931 9933 9936 9940 9943 9947 9952 9956 9962 9968 9974 9981 9988 9995
10000 9992 9985 9977 9971 9964 9959 9955 9951 9948 9945 9942 9938 9935 9933 9931 9929 9928 9927 9926 9926 9926 9926 9927 9929 9931 9933 9936 9940 9944 9948 9952 9957 9962 9969 9975 9981 9988
9990 9983 9976 9970 9964 9960 9955 9951 9948 9946 9943 9939 9936 9933 9930 9928 9927 9926 9925 9925 9925 9925 9926 9926 9927 9929 9932 9935 9937 9941 9944 9949 9953 9959 9964 9969 9975 9982
9982 9975 9969 9965 9959 9956 9952 9950 9946 9943 9940 9937 9934 9932 9929 9928 9926 9924 9923 9923 9922 9922 9922 9923 9924 9926 9928 9931 9935 9938 9941 9945 9949 9954 9958 9963 9969 9974
9975 9969 9965 9960 9956 9953 9951 9947 9944 9941 9938 9935 9933 9930 9927 9926 9924 9922 9920 9919 9919 9919 9919 9919 9920 9922 9924 9927 9930 9934 9937 9940 9943 9946 9951 9955 9960 9966